Flag for Guatemala Weather past 2 weeks in Guatemala, Guatemala

Now
72 °F

Scattered clouds.


Feels Like: 74 °F
Forecast: 61 / 72 °F
Wind: 14 mph from South

Location: Guatemala Aeropuertola Aurora

Current Time: Oct 21, 2014 at 1:31:45 PM

Latest Report: Oct 21, 2014 at 1:00 PM


Visibility: N/A

Pressure: 30.15 "Hg

Humidity: 73%

Dew point: 63 °F

Location of GuatemalaLocation

Historic Weather in Guatemala — Graph

°F

Guatemala temperature yesterday

Maximum temperature yesterday: 75 °F (at 12:00 PM)
Minimum temperature yesterday: 63 °F (at 1:00 AM)
Average temperature yesterday: 67 °F

Past Weeks' High & Low Weather Summary

 TemperatureHumidityPressure
High79 °F (Oct 6, 12:00 PM)100% (Oct 8, 10:00 PM)30.33 "Hg (Oct 8, 10:00 PM)
Low61 °F (Oct 7, 6:00 AM)48% (Oct 7, 12:00 PM)30.09 "Hg (Oct 20, 4:00 PM)
Average66 °F86%30.22 "Hg
* Reported Oct 6 12:00 Noon — Oct 21 12:00 Noon, Guatemala, Weather by CustomWeather, © 2014

Note: Actual official high and low records may vary slightly from our data, if they occured in-between our weather recording intervals... More about our weather records

Advertising

Guatemala weather history for previous 24 hours

 ConditionsComfort  
Time TempWeatherWind HumidityBarometerVisibility
12:00 PM
Oct 21
72 °FScattered clouds.12 mph69%30.18 "HgN/A
11:00 AM72 °FScattered clouds.12 mph69%30.21 "HgN/A
10:00 AM70 °FScattered clouds.7 mph73%30.21 "HgN/A
9:00 AM68 °FPartly sunny.9 mph78%30.21 "HgN/A
8:00 AM64 °FPartly sunny.7 mph88%30.18 "HgN/A
7:00 AM63 °FBroken clouds.9 mph94%30.18 "Hg5 mi
6:00 AM61 °FScattered clouds.No wind94%30.15 "HgN/A
5:00 AM61 °FPassing clouds.2 mph100%30.12 "HgN/A
4:00 AM63 °FPassing clouds.5 mph94%30.12 "HgN/A
3:00 AM63 °FPassing clouds.5 mph94%30.12 "HgN/A
2:00 AM63 °FPartly cloudy.7 mph94%30.15 "Hg5 mi
1:00 AM63 °FPassing clouds.7 mph94%30.18 "Hg5 mi
12:00 AM63 °FPassing clouds.No wind94%30.18 "Hg5 mi
11:00 PM
Oct 20
64 °FPassing clouds.7 mph94%30.21 "Hg5 mi
10:00 PM64 °FPassing clouds.7 mph94%30.21 "Hg5 mi
9:00 PM64 °FPartly cloudy.7 mph94%30.21 "Hg5 mi
8:00 PM64 °FPartly cloudy.7 mph94%30.18 "Hg5 mi
7:00 PM64 °FPassing clouds.9 mph94%30.15 "Hg5 mi
6:00 PM66 °FPassing clouds.9 mph94%30.12 "HgN/A
5:00 PM68 °FRain showers. Scattered clouds.12 mph88%30.12 "Hg5 mi
4:00 PM70 °FScattered clouds.12 mph78%30.09 "HgN/A
3:00 PM73 °FScattered clouds.16 mph69%30.12 "HgN/A
2:00 PM75 °FScattered clouds.12 mph65%30.12 "HgN/A
1:00 PM73 °FScattered clouds.9 mph69%30.18 "HgN/A
Weather by CustomWeather, © 2014

See weather overviewHow to use our weather pages